Location: Clinton NY
(43.0598°N, 75.3602°W)
Time: 11:23:54
(UTC-04:00)

ISS - All Passes

Search period start: 24 October 2014 00:00
Search period end: 02 November 2014 23:00
Orbit: 412 x 416 km, 51.6° (Epoch: 24 October)

Date Brightness Start Highest point End Pass type
(mag) Time Alt. Az. Time Alt. Az. Time Alt. Az.
24 Oct - 13:11:32 10° SSW 13:14:43 44° SE 13:17:55 10° ENE daylight
24 Oct - 14:48:26 10° W 14:51:30 32° NNW 14:54:33 10° NE daylight
24 Oct - 16:26:28 10° NW 16:28:54 18° N 16:31:20 10° NE daylight
24 Oct - 18:03:25 10° NW 18:06:22 28° NNE 18:09:19 10° E daylight
24 Oct - 19:39:57 10° WNW 19:43:15 60° SW 19:46:33 10° SE visible
25 Oct - 12:22:51 10° SSW 12:25:40 25° SE 12:28:29 10° ENE daylight
25 Oct - 13:58:59 10° WSW 14:02:12 46° NNW 14:05:27 10° NE daylight
25 Oct - 15:36:59 10° NW 15:39:29 19° N 15:42:00 10° NE daylight
25 Oct - 17:14:16 10° NW 17:17:00 23° NNE 17:19:44 10° ENE daylight
25 Oct - 18:50:44 10° NW 18:54:05 80° NNE 18:57:25 10° ESE visible
25 Oct - 20:28:38 10° W 20:30:22 14° SW 20:32:05 10° SSW visible
26 Oct - 11:34:38 10° S 11:36:37 15° SE 11:38:37 10° E daylight
26 Oct - 13:09:37 10° WSW 13:12:56 72° NNW 13:16:17 10° NE daylight
26 Oct - 14:47:22 10° WNW 14:50:03 22° NNW 14:52:44 10° NE daylight
26 Oct - 16:25:02 10° NW 16:27:34 20° N 16:30:07 10° ENE daylight
26 Oct - 18:01:33 10° NW 18:04:49 50° NNE 18:08:05 10° ESE daylight
26 Oct - 19:38:37 10° W 19:41:19 23° SW 19:44:01 10° S visible
27 Oct - 12:20:23 10° SW 12:23:41 68° SE 12:27:00 10° ENE daylight
27 Oct - 13:57:43 10° WNW 14:00:36 27° NNW 14:03:30 10° NE daylight
27 Oct - 15:35:38 10° NW 15:38:05 18° N 15:40:31 10° NE daylight
27 Oct - 17:12:21 10° NW 17:15:27 34° NNE 17:18:33 10° E daylight
27 Oct - 18:49:02 10° WNW 18:52:11 39° SW 18:55:18 10° SSE visible
28 Oct - 11:31:21 10° SSW 11:34:27 38° SE 11:37:35 10° ENE daylight
28 Oct - 13:08:04 10° W 13:11:10 35° NNW 13:14:16 10° NE daylight
28 Oct - 14:46:06 10° NW 14:48:32 18° N 14:50:58 10° NE daylight
28 Oct - 16:23:07 10° NW 16:26:00 26° NNE 16:28:53 10° ENE daylight
28 Oct - 17:59:36 10° WNW 18:02:56 70° SW 18:06:14 10° SE daylight
29 Oct - 10:42:37 10° S 10:45:15 22° SE 10:47:54 10° E daylight
29 Oct - 12:18:28 10° WSW 12:21:44 51° NNW 12:25:00 10° NE daylight
29 Oct - 13:56:25 10° WNW 13:58:57 20° N 14:01:30 10° NE daylight
29 Oct - 15:33:48 10° NW 15:36:28 22° NNE 15:39:08 10° ENE daylight
29 Oct - 17:10:15 10° NW 17:13:35 70° NNE 17:16:54 10° ESE daylight
29 Oct - 18:47:50 10° W 18:49:54 16° SW 18:51:58 10° S visible
30 Oct - 09:54:28 10° SSE 09:56:04 13° SE 09:57:40 10° ESE daylight
30 Oct - 11:28:59 10° WSW 11:32:18 83° NNW 11:35:39 10° NE daylight
30 Oct - 13:06:38 10° WNW 13:09:22 23° NNW 13:12:06 10° NE daylight
30 Oct - 14:44:22 10° NW 14:46:52 19° N 14:49:21 10° NE daylight
30 Oct - 16:20:55 10° NW 16:24:08 44° NNE 16:27:21 10° E daylight
30 Oct - 17:57:50 10° WNW 18:00:41 26° SW 18:03:32 10° SSE daylight
31 Oct - 10:39:39 10° SW 10:42:54 57° SE 10:46:11 10° ENE daylight
31 Oct - 12:16:49 10° W 12:19:46 28° NNW 12:22:43 10° NE daylight
31 Oct - 13:54:47 10° NW 13:57:12 18° N 13:59:37 10° NE daylight
31 Oct - 15:31:33 10° NW 15:34:36 31° NNE 15:37:37 10° E daylight
31 Oct - 17:08:09 10° WNW 17:11:22 46° SW 17:14:34 10° SE daylight
01 Nov - 09:50:32 10° SSW 09:53:32 32° SE 09:56:33 10° ENE daylight
01 Nov - 11:27:01 10° W 11:30:10 38° NNW 11:33:19 10° NE daylight
01 Nov - 13:05:02 10° NW 13:07:29 19° N 13:09:56 10° NE daylight
01 Nov - 14:42:09 10° NW 14:44:58 25° NNE 14:47:46 10° ENE daylight
01 Nov - 16:18:36 10° WNW 16:21:56 81° SW 16:25:15 10° SE daylight
01 Nov - 17:57:32 10° WSW 17:58:05 10° SW 17:58:38 10° SW daylight
02 Nov - 08:01:45 10° S 08:04:11 19° SE 08:06:37 10° E daylight
02 Nov - 09:37:18 10° WSW 09:40:35 58° NNW 09:43:53 10° NE daylight
02 Nov - 11:15:10 10° WNW 11:17:45 20° N 11:20:20 10° NE daylight
02 Nov - 12:52:39 10° NW 12:55:15 21° N 12:57:51 10° ENE daylight
02 Nov - 14:29:06 10° NW 14:32:25 61° NNE 14:35:42 10° ESE daylight
02 Nov - 16:06:26 10° W 16:08:47 18° SW 16:11:08 10° S daylight
